Year,Month,Day,Hour,Minute,Value (Times are PST for temperature in C)
2015,04,20,00,00,9.20
2015,04,20,00,01,9.20
2015,04,20,00,02,9.10
2015,04,20,00,03,9.10
2015,04,20,00,04,9.10
2015,04,20,00,05,9.10
2015,04,20,00,06,9.10
2015,04,20,00,07,9.10
2015,04,20,00,08,9.10
2015,04,20,00,09,9.10
2015,04,20,00,10,9.00
2015,04,20,00,11,9.00
2015,04,20,00,12,9.00
2015,04,20,00,13,9.00
2015,04,20,00,14,8.90
2015,04,20,00,15,8.90
2015,04,20,00,16,8.90
2015,04,20,00,17,8.90
2015,04,20,00,18,8.90
2015,04,20,00,19,8.90
2015,04,20,00,20,8.90
2015,04,20,00,21,8.80
2015,04,20,00,22,8.80
2015,04,20,00,23,8.80
2015,04,20,00,24,8.80
2015,04,20,00,25,8.80
2015,04,20,00,26,8.80
2015,04,20,00,27,8.80
2015,04,20,00,28,8.80
2015,04,20,00,29,8.80
2015,04,20,00,30,8.70
2015,04,20,00,31,8.70
2015,04,20,00,32,8.70
2015,04,20,00,33,8.70
2015,04,20,00,34,8.70
2015,04,20,00,35,8.70
2015,04,20,00,36,8.60
2015,04,20,00,37,8.60
2015,04,20,00,38,8.60
2015,04,20,00,39,8.60
2015,04,20,00,40,8.60
2015,04,20,00,41,8.60
2015,04,20,00,42,8.50
2015,04,20,00,43,8.50
2015,04,20,00,44,8.50
2015,04,20,00,45,8.50
2015,04,20,00,46,8.40
2015,04,20,00,47,8.40
2015,04,20,00,48,8.40
2015,04,20,00,49,8.40
2015,04,20,00,50,8.40
2015,04,20,00,51,8.40
2015,04,20,00,52,8.40
2015,04,20,00,53,8.40
2015,04,20,00,54,8.40
2015,04,20,00,55,8.30
2015,04,20,00,56,8.30
2015,04,20,00,57,8.30
2015,04,20,00,58,8.30
2015,04,20,00,59,8.30
2015,04,20,01,00,8.30
2015,04,20,01,01,8.30
2015,04,20,01,02,8.30
2015,04,20,01,03,8.30
2015,04,20,01,04,8.30
2015,04,20,01,05,8.30
2015,04,20,01,06,8.30
2015,04,20,01,07,8.20
2015,04,20,01,08,8.20
2015,04,20,01,09,8.20
2015,04,20,01,10,8.20
2015,04,20,01,11,8.20
2015,04,20,01,12,8.20
2015,04,20,01,13,8.20
2015,04,20,01,14,8.20
2015,04,20,01,15,8.20
2015,04,20,01,16,8.20
2015,04,20,01,17,8.10
2015,04,20,01,18,8.10
2015,04,20,01,19,8.10
2015,04,20,01,20,8.10
2015,04,20,01,21,8.10
2015,04,20,01,22,8.10
2015,04,20,01,23,8.10
2015,04,20,01,24,8.10
2015,04,20,01,25,8.10
2015,04,20,01,26,8.10
2015,04,20,01,27,8.00
2015,04,20,01,28,8.00
2015,04,20,01,29,8.00
2015,04,20,01,30,8.00
2015,04,20,01,31,8.00
2015,04,20,01,32,8.00
2015,04,20,01,33,8.00
2015,04,20,01,34,8.00
2015,04,20,01,35,8.00
2015,04,20,01,36,8.00
2015,04,20,01,37,8.00
2015,04,20,01,38,8.00
2015,04,20,01,39,8.00
2015,04,20,01,40,8.00
2015,04,20,01,41,7.90
2015,04,20,01,42,7.90
2015,04,20,01,43,7.90
2015,04,20,01,44,7.90
2015,04,20,01,45,7.90
2015,04,20,01,46,7.90
2015,04,20,01,47,7.90
2015,04,20,01,48,7.90
2015,04,20,01,49,7.80
2015,04,20,01,50,7.80
2015,04,20,01,51,7.80
2015,04,20,01,52,7.80
2015,04,20,01,53,7.80
2015,04,20,01,54,7.80
2015,04,20,01,55,7.80
2015,04,20,01,56,7.80
2015,04,20,01,57,7.80
2015,04,20,01,58,7.80
2015,04,20,01,59,7.80
2015,04,20,02,00,7.80
2015,04,20,02,01,7.70
2015,04,20,02,02,7.70
2015,04,20,02,03,7.70
2015,04,20,02,04,7.70
2015,04,20,02,05,7.70
2015,04,20,02,06,7.70
2015,04,20,02,07,7.70
2015,04,20,02,08,7.70
2015,04,20,02,09,7.60
2015,04,20,02,10,7.60
2015,04,20,02,11,7.60
2015,04,20,02,12,7.60
2015,04,20,02,13,7.60
2015,04,20,02,14,7.60
2015,04,20,02,15,7.60
2015,04,20,02,16,7.50
2015,04,20,02,17,7.50
2015,04,20,02,18,7.50
2015,04,20,02,19,7.50
2015,04,20,02,20,7.50
2015,04,20,02,21,7.50
2015,04,20,02,22,7.40
2015,04,20,02,23,7.40
2015,04,20,02,24,7.40
2015,04,20,02,25,7.40
2015,04,20,02,26,7.40
2015,04,20,02,27,7.40
2015,04,20,02,28,7.40
2015,04,20,02,29,7.30
2015,04,20,02,30,7.30
2015,04,20,02,31,7.30
2015,04,20,02,32,7.30
2015,04,20,02,33,7.30
2015,04,20,02,34,7.30
2015,04,20,02,35,7.30
2015,04,20,02,36,7.30
2015,04,20,02,37,7.30
2015,04,20,02,38,7.30
2015,04,20,02,39,7.30
2015,04,20,02,40,7.20
2015,04,20,02,41,7.20
2015,04,20,02,42,7.20
2015,04,20,02,43,7.20
2015,04,20,02,44,7.20
2015,04,20,02,45,7.20
2015,04,20,02,46,7.20
2015,04,20,02,47,7.20
2015,04,20,02,48,7.20
2015,04,20,02,49,7.20
2015,04,20,02,50,7.20
2015,04,20,02,51,7.20
2015,04,20,02,52,7.10
2015,04,20,02,53,7.10
2015,04,20,02,54,7.10
2015,04,20,02,55,7.10
2015,04,20,02,56,7.10
2015,04,20,02,57,7.10
2015,04,20,02,58,7.10
2015,04,20,02,59,7.10
2015,04,20,03,00,7.10
2015,04,20,03,01,7.00
2015,04,20,03,02,7.00
2015,04,20,03,03,7.00
2015,04,20,03,04,7.00
2015,04,20,03,05,7.00
2015,04,20,03,06,7.00
2015,04,20,03,07,7.00
2015,04,20,03,08,7.00
2015,04,20,03,09,7.00
2015,04,20,03,10,6.90
2015,04,20,03,11,6.90
2015,04,20,03,12,6.90
2015,04,20,03,13,6.90
2015,04,20,03,14,6.90
2015,04,20,03,15,6.90
2015,04,20,03,16,6.90
2015,04,20,03,17,6.90
2015,04,20,03,18,6.90
2015,04,20,03,19,6.90
2015,04,20,03,20,6.80
2015,04,20,03,21,6.80
2015,04,20,03,22,6.80
2015,04,20,03,23,6.80
2015,04,20,03,24,6.80
2015,04,20,03,25,6.80
2015,04,20,03,26,6.80
2015,04,20,03,27,6.80
2015,04,20,03,28,6.80
2015,04,20,03,29,6.80
2015,04,20,03,30,6.80
2015,04,20,03,31,6.80
2015,04,20,03,32,6.80
2015,04,20,03,33,6.80
2015,04,20,03,34,6.80
2015,04,20,03,35,6.70
2015,04,20,03,36,6.70
2015,04,20,03,37,6.70
2015,04,20,03,38,6.70
2015,04,20,03,39,6.70
2015,04,20,03,40,6.70
2015,04,20,03,41,6.70
2015,04,20,03,42,6.70
2015,04,20,03,43,6.70
2015,04,20,03,44,6.70
2015,04,20,03,45,6.70
2015,04,20,03,46,6.70
2015,04,20,03,47,6.70
2015,04,20,03,48,6.70
2015,04,20,03,49,6.70
2015,04,20,03,50,6.70
2015,04,20,03,51,6.70
2015,04,20,03,52,6.70
2015,04,20,03,53,6.70
2015,04,20,03,54,6.70
2015,04,20,03,55,6.70
2015,04,20,03,56,6.70
2015,04,20,03,57,6.70
2015,04,20,03,58,6.70
2015,04,20,03,59,6.70
2015,04,20,04,00,6.70
2015,04,20,04,01,6.70
2015,04,20,04,02,6.80
2015,04,20,04,03,6.80
2015,04,20,04,04,6.80
2015,04,20,04,05,6.90
2015,04,20,04,06,6.90
2015,04,20,04,07,6.90
2015,04,20,04,08,6.90
2015,04,20,04,09,6.90
2015,04,20,04,10,6.90
2015,04,20,04,11,6.90
2015,04,20,04,12,6.90
2015,04,20,04,13,6.90
2015,04,20,04,14,6.90
2015,04,20,04,15,6.90
2015,04,20,04,16,6.90
2015,04,20,04,17,6.90
2015,04,20,04,18,6.90
2015,04,20,04,19,6.90
2015,04,20,04,20,6.80
2015,04,20,04,21,6.80
2015,04,20,04,22,6.80
2015,04,20,04,23,6.80
2015,04,20,04,24,6.80
2015,04,20,04,25,6.70
2015,04,20,04,26,6.70
2015,04,20,04,27,6.70
2015,04,20,04,28,6.70
2015,04,20,04,29,6.70
2015,04,20,04,30,6.70
2015,04,20,04,31,6.70
2015,04,20,04,32,6.60
2015,04,20,04,33,6.60
2015,04,20,04,34,6.60
2015,04,20,04,35,6.60
2015,04,20,04,36,6.60
2015,04,20,04,37,6.60
2015,04,20,04,38,6.50
2015,04,20,04,39,6.50
2015,04,20,04,40,6.50
2015,04,20,04,41,6.50
2015,04,20,04,42,6.50
2015,04,20,04,43,6.40
2015,04,20,04,44,6.40
2015,04,20,04,45,6.40
2015,04,20,04,46,6.40
2015,04,20,04,47,6.40
2015,04,20,04,48,6.40
2015,04,20,04,49,6.40
2015,04,20,04,50,6.30
2015,04,20,04,51,6.30
2015,04,20,04,52,6.30
2015,04,20,04,53,6.30
2015,04,20,04,54,6.30
2015,04,20,04,55,6.30
2015,04,20,04,56,6.30
2015,04,20,04,57,6.30
2015,04,20,04,58,6.30
2015,04,20,04,59,6.30
2015,04,20,05,00,6.30
2015,04,20,05,01,6.20
2015,04,20,05,02,6.20
2015,04,20,05,03,6.20
2015,04,20,05,04,6.20
2015,04,20,05,05,6.20
2015,04,20,05,06,6.20
2015,04,20,05,07,6.20
2015,04,20,05,08,6.20
2015,04,20,05,09,6.20
2015,04,20,05,10,6.20
2015,04,20,05,11,6.10
2015,04,20,05,12,6.10
2015,04,20,05,13,6.10
2015,04,20,05,14,6.10
2015,04,20,05,15,6.10
2015,04,20,05,16,6.10
2015,04,20,05,17,6.10
2015,04,20,05,18,6.10
2015,04,20,05,19,6.10
2015,04,20,05,20,6.10
2015,04,20,05,21,6.00
2015,04,20,05,22,6.00
2015,04,20,05,23,6.00
2015,04,20,05,24,6.00
2015,04,20,05,25,6.00
2015,04,20,05,26,6.00
2015,04,20,05,27,6.00
2015,04,20,05,28,6.00
2015,04,20,05,29,5.90
2015,04,20,05,30,5.90
2015,04,20,05,31,5.90
2015,04,20,05,32,5.90
2015,04,20,05,33,5.90
2015,04,20,05,34,5.90
2015,04,20,05,35,5.90
2015,04,20,05,36,5.90
2015,04,20,05,37,5.90
2015,04,20,05,38,5.90
2015,04,20,05,39,5.90
2015,04,20,05,40,5.90
2015,04,20,05,41,5.80
2015,04,20,05,42,5.80
2015,04,20,05,43,5.80
2015,04,20,05,44,5.80
2015,04,20,05,45,5.80
2015,04,20,05,46,5.80
2015,04,20,05,47,5.80
2015,04,20,05,48,5.80
2015,04,20,05,49,5.80
2015,04,20,05,50,5.80
2015,04,20,05,51,5.80
2015,04,20,05,52,5.80
2015,04,20,05,53,5.70
2015,04,20,05,54,5.70
2015,04,20,05,55,5.70
2015,04,20,05,56,5.70
2015,04,20,05,57,5.70
2015,04,20,05,58,5.70
2015,04,20,05,59,5.70
2015,04,20,06,00,5.70
2015,04,20,06,01,5.70
2015,04,20,06,02,5.70
2015,04,20,06,03,5.70
2015,04,20,06,04,5.70
2015,04,20,06,05,5.70
2015,04,20,06,06,5.60
2015,04,20,06,07,5.60
2015,04,20,06,08,5.60
2015,04,20,06,09,5.60
2015,04,20,06,10,5.60
2015,04,20,06,11,5.60
2015,04,20,06,12,5.60
2015,04,20,06,13,5.60
2015,04,20,06,14,5.60
2015,04,20,06,15,5.60
2015,04,20,06,16,5.60
2015,04,20,06,17,5.60
2015,04,20,06,18,5.60
2015,04,20,06,19,5.60
2015,04,20,06,20,5.60
2015,04,20,06,21,5.60
2015,04,20,06,22,5.60
2015,04,20,06,23,5.60
2015,04,20,06,24,5.60
2015,04,20,06,25,5.60
2015,04,20,06,26,5.60
2015,04,20,06,27,5.60
2015,04,20,06,28,5.60
2015,04,20,06,29,5.60
2015,04,20,06,30,5.60
2015,04,20,06,31,5.60
2015,04,20,06,32,5.60
2015,04,20,06,33,5.60
2015,04,20,06,34,5.60
2015,04,20,06,35,5.60
2015,04,20,06,36,5.60
2015,04,20,06,37,5.60
2015,04,20,06,38,5.60
2015,04,20,06,39,5.60
2015,04,20,06,40,5.60
2015,04,20,06,41,5.60
2015,04,20,06,42,5.60
2015,04,20,06,43,5.60
2015,04,20,06,44,5.60
2015,04,20,06,45,5.60
2015,04,20,06,46,5.60
2015,04,20,06,47,5.60
2015,04,20,06,48,5.60
2015,04,20,06,49,5.60
2015,04,20,06,50,5.60
2015,04,20,06,51,5.60
2015,04,20,06,52,5.60
2015,04,20,06,53,5.60
2015,04,20,06,54,5.60
2015,04,20,06,55,5.60
2015,04,20,06,56,5.60
2015,04,20,06,57,5.60
2015,04,20,06,58,5.60
2015,04,20,06,59,5.60
2015,04,20,07,00,5.60
2015,04,20,07,01,5.60
2015,04,20,07,02,5.70
2015,04,20,07,03,5.70
2015,04,20,07,04,5.70
2015,04,20,07,05,5.70
2015,04,20,07,06,5.80
2015,04,20,07,07,5.80
2015,04,20,07,08,5.80
2015,04,20,07,09,5.80
2015,04,20,07,10,5.80
2015,04,20,07,11,5.80
2015,04,20,07,12,5.90
2015,04,20,07,13,5.90
2015,04,20,07,14,5.90
2015,04,20,07,15,5.90
2015,04,20,07,16,5.90
2015,04,20,07,17,6.00
2015,04,20,07,18,6.00
2015,04,20,07,19,6.00
2015,04,20,07,20,6.10
2015,04,20,07,21,6.10
2015,04,20,07,22,6.10
2015,04,20,07,23,6.20
2015,04,20,07,24,6.20
2015,04,20,07,25,6.30
2015,04,20,07,26,6.30
2015,04,20,07,27,6.30
2015,04,20,07,28,6.30
2015,04,20,07,29,6.40
2015,04,20,07,30,6.40
2015,04,20,07,31,6.40
2015,04,20,07,32,6.50
2015,04,20,07,33,6.50
2015,04,20,07,34,6.60
2015,04,20,07,35,6.60
2015,04,20,07,36,6.60
2015,04,20,07,37,6.70
2015,04,20,07,38,6.70
2015,04,20,07,39,6.80
2015,04,20,07,40,6.80
2015,04,20,07,41,6.90
2015,04,20,07,42,7.00
2015,04,20,07,43,7.00
2015,04,20,07,44,7.10
2015,04,20,07,45,7.20
2015,04,20,07,46,7.30
2015,04,20,07,47,7.40
2015,04,20,07,48,7.40
2015,04,20,07,49,7.50
2015,04,20,07,50,7.60
2015,04,20,07,51,7.70
2015,04,20,07,52,7.70
2015,04,20,07,53,7.70
2015,04,20,07,54,7.80
2015,04,20,07,55,7.80
2015,04,20,07,56,7.90
2015,04,20,07,57,7.90
2015,04,20,07,58,7.90
2015,04,20,07,59,7.90
2015,04,20,08,00,8.00
2015,04,20,08,01,8.00
2015,04,20,08,02,8.00
2015,04,20,08,03,8.10
2015,04,20,08,04,8.10
2015,04,20,08,05,8.10
2015,04,20,08,06,8.10
2015,04,20,08,07,8.20
2015,04,20,08,08,8.20
2015,04,20,08,09,8.20
2015,04,20,08,10,8.20
2015,04,20,08,11,8.30
2015,04,20,08,12,8.30
2015,04,20,08,13,8.30
2015,04,20,08,14,8.40
2015,04,20,08,15,8.40
2015,04,20,08,16,8.40
2015,04,20,08,17,8.50
2015,04,20,08,18,8.60
2015,04,20,08,19,8.60
2015,04,20,08,20,8.70
2015,04,20,08,21,8.70
2015,04,20,08,22,8.70
2015,04,20,08,23,8.80
2015,04,20,08,24,8.80
2015,04,20,08,25,8.90
2015,04,20,08,26,8.90
2015,04,20,08,27,9.00
2015,04,20,08,28,9.00
2015,04,20,08,29,9.10
2015,04,20,08,30,9.10
2015,04,20,08,31,9.20
2015,04,20,08,32,9.30
2015,04,20,08,33,9.30
2015,04,20,08,34,9.30
2015,04,20,08,35,9.40
2015,04,20,08,36,9.50
2015,04,20,08,37,9.50
2015,04,20,08,38,9.60
2015,04,20,08,39,9.60
2015,04,20,08,40,9.70
2015,04,20,08,41,9.80
2015,04,20,08,42,9.80
2015,04,20,08,43,9.90
2015,04,20,08,44,10.00
2015,04,20,08,45,10.00
2015,04,20,08,46,10.10
2015,04,20,08,47,10.10
2015,04,20,08,48,10.20
2015,04,20,08,49,10.30
2015,04,20,08,50,10.30
2015,04,20,08,51,10.40
2015,04,20,08,52,10.50
2015,04,20,08,53,10.60
2015,04,20,08,54,10.70
2015,04,20,08,55,10.80
2015,04,20,08,56,11.00
2015,04,20,08,57,11.10
2015,04,20,08,58,11.10
2015,04,20,08,59,11.20
2015,04,20,09,00,11.30
2015,04,20,09,01,11.40
2015,04,20,09,02,11.40
2015,04,20,09,03,11.50
2015,04,20,09,04,11.60
2015,04,20,09,05,11.70
2015,04,20,09,06,11.80
2015,04,20,09,07,11.80
2015,04,20,09,08,11.90
2015,04,20,09,09,12.00
2015,04,20,09,10,12.00
2015,04,20,09,11,12.10
2015,04,20,09,12,12.10
2015,04,20,09,13,12.20
2015,04,20,09,14,12.20
2015,04,20,09,15,12.30
2015,04,20,09,16,12.30
2015,04,20,09,17,12.30
2015,04,20,09,18,12.40
2015,04,20,09,19,12.50
2015,04,20,09,20,12.50
2015,04,20,09,21,12.60
2015,04,20,09,22,12.70
2015,04,20,09,23,12.70
2015,04,20,09,24,12.80
2015,04,20,09,25,12.90
2015,04,20,09,26,13.00
2015,04,20,09,27,13.10
2015,04,20,09,28,13.20
2015,04,20,09,29,13.30
2015,04,20,09,30,13.40
2015,04,20,09,31,13.50
2015,04,20,09,32,13.60
2015,04,20,09,33,13.70
2015,04,20,09,34,13.80
2015,04,20,09,35,13.80
2015,04,20,09,36,13.80
2015,04,20,09,37,13.90
2015,04,20,09,38,13.90
2015,04,20,09,39,14.00
2015,04,20,09,40,14.00
2015,04,20,09,41,14.10
2015,04,20,09,42,14.20
2015,04,20,09,43,14.30
2015,04,20,09,44,14.40
2015,04,20,09,45,14.50
2015,04,20,09,46,14.50
2015,04,20,09,47,14.60
2015,04,20,09,48,14.70
2015,04,20,09,49,14.80
2015,04,20,09,50,14.90
2015,04,20,09,51,15.00
2015,04,20,09,52,15.10
2015,04,20,09,53,15.20
2015,04,20,09,54,15.20
2015,04,20,09,55,15.20
2015,04,20,09,56,15.30
2015,04,20,09,57,15.30
2015,04,20,09,58,15.40
2015,04,20,09,59,15.40
2015,04,20,10,00,15.50
2015,04,20,10,01,15.50
2015,04,20,10,02,15.60
2015,04,20,10,03,15.70
2015,04,20,10,04,15.80
2015,04,20,10,05,16.00
2015,04,20,10,06,16.10
2015,04,20,10,07,16.10
2015,04,20,10,08,16.20
2015,04,20,10,09,16.30
2015,04,20,10,10,16.30
2015,04,20,10,11,16.40
2015,04,20,10,12,16.50
2015,04,20,10,13,16.60
2015,04,20,10,14,16.60
2015,04,20,10,15,16.70
2015,04,20,10,16,16.70
2015,04,20,10,17,16.80
2015,04,20,10,18,16.80
2015,04,20,10,19,16.80
2015,04,20,10,20,16.90
2015,04,20,10,21,16.90
2015,04,20,10,22,17.00
2015,04,20,10,23,17.00
2015,04,20,10,24,17.10
2015,04,20,10,25,17.20
2015,04,20,10,26,17.20
2015,04,20,10,27,17.30
2015,04,20,10,28,17.40
2015,04,20,10,29,17.50
2015,04,20,10,30,17.50
2015,04,20,10,31,17.60
2015,04,20,10,32,17.60
2015,04,20,10,33,17.60
2015,04,20,10,34,17.60
2015,04,20,10,35,17.70
2015,04,20,10,36,17.70
2015,04,20,10,37,17.70
2015,04,20,10,38,17.80
2015,04,20,10,39,17.90
2015,04,20,10,40,18.00
2015,04,20,10,41,18.10
2015,04,20,10,42,18.20
2015,04,20,10,43,18.20
2015,04,20,10,44,18.30
2015,04,20,10,45,18.30
2015,04,20,10,46,18.30
2015,04,20,10,47,18.30
2015,04,20,10,48,18.40
2015,04,20,10,49,18.40
2015,04,20,10,50,18.50
2015,04,20,10,51,18.50
2015,04,20,10,52,18.60
2015,04,20,10,53,18.60
2015,04,20,10,54,18.70
2015,04,20,10,55,18.80
2015,04,20,10,56,18.80
2015,04,20,10,57,18.90
2015,04,20,10,58,19.00
2015,04,20,10,59,19.00
2015,04,20,11,00,19.10
2015,04,20,11,01,19.10
2015,04,20,11,02,19.20
2015,04,20,11,03,19.20
2015,04,20,11,04,19.30
2015,04,20,11,05,19.30
2015,04,20,11,06,19.40
2015,04,20,11,07,19.40
2015,04,20,11,08,19.40
2015,04,20,11,09,19.40
2015,04,20,11,10,19.50
2015,04,20,11,11,19.50
2015,04,20,11,12,19.60
2015,04,20,11,13,19.60
2015,04,20,11,14,19.60
2015,04,20,11,15,19.60
2015,04,20,11,16,19.60
2015,04,20,11,17,19.60
2015,04,20,11,18,19.60
2015,04,20,11,19,19.70
2015,04,20,11,20,19.70
2015,04,20,11,21,19.70
2015,04,20,11,22,19.70
2015,04,20,11,23,19.70
2015,04,20,11,24,19.60
2015,04,20,11,25,19.60
2015,04,20,11,26,19.50
2015,04,20,11,27,19.50
2015,04,20,11,28,19.40
2015,04,20,11,29,19.40
2015,04,20,11,30,19.30
2015,04,20,11,31,19.30
2015,04,20,11,32,19.30
2015,04,20,11,33,19.30
2015,04,20,11,34,19.20
2015,04,20,11,35,19.20
2015,04,20,11,36,19.10
2015,04,20,11,37,19.00
2015,04,20,11,38,19.00
2015,04,20,11,39,18.90
2015,04,20,11,40,18.80
2015,04,20,11,41,18.80
2015,04,20,11,42,18.70
2015,04,20,11,43,18.60
2015,04,20,11,44,18.60
2015,04,20,11,45,18.60
2015,04,20,11,46,18.60
2015,04,20,11,47,18.60
2015,04,20,11,48,18.60
2015,04,20,11,49,18.60
2015,04,20,11,50,18.60
2015,04,20,11,51,18.60
2015,04,20,11,52,18.60
2015,04,20,11,53,18.60
2015,04,20,11,54,18.60
2015,04,20,11,55,18.70
2015,04,20,11,56,18.70
2015,04,20,11,57,18.70
2015,04,20,11,58,18.80
2015,04,20,11,59,18.90
2015,04,20,12,00,19.00
2015,04,20,12,01,19.00
2015,04,20,12,02,19.10
2015,04,20,12,03,19.20
2015,04,20,12,04,19.30
2015,04,20,12,05,19.30
2015,04,20,12,06,19.40
2015,04,20,12,07,19.40
2015,04,20,12,08,19.40
2015,04,20,12,09,19.50
2015,04,20,12,10,19.50
2015,04,20,12,11,19.60
2015,04,20,12,12,19.60
2015,04,20,12,13,19.70
2015,04,20,12,14,19.70
2015,04,20,12,15,19.70
2015,04,20,12,16,19.70
2015,04,20,12,17,19.60
2015,04,20,12,18,19.60
2015,04,20,12,19,19.60
2015,04,20,12,20,19.60
2015,04,20,12,21,19.60
2015,04,20,12,22,19.50
2015,04,20,12,23,19.50
2015,04,20,12,24,19.50
2015,04,20,12,25,19.40
2015,04,20,12,26,19.30
2015,04,20,12,27,19.30
2015,04,20,12,28,19.20
2015,04,20,12,29,19.20
2015,04,20,12,30,19.10
2015,04,20,12,31,19.10
2015,04,20,12,32,19.10
2015,04,20,12,33,19.10
2015,04,20,12,34,19.10
2015,04,20,12,35,19.10
2015,04,20,12,36,19.10
2015,04,20,12,37,19.00
2015,04,20,12,38,19.00
2015,04,20,12,39,18.90
2015,04,20,12,40,18.90
2015,04,20,12,41,18.90
2015,04,20,12,42,18.80
2015,04,20,12,43,18.80
2015,04,20,12,44,18.80
2015,04,20,12,45,18.90
2015,04,20,12,46,19.00
2015,04,20,12,47,19.00
2015,04,20,12,48,19.10
2015,04,20,12,49,19.10
2015,04,20,12,50,19.10
2015,04,20,12,51,19.20
2015,04,20,12,52,19.20
2015,04,20,12,53,19.30
2015,04,20,12,54,19.40
2015,04,20,12,55,19.40
2015,04,20,12,56,19.50
2015,04,20,12,57,19.50
2015,04,20,12,58,19.60
2015,04,20,12,59,19.60
2015,04,20,13,00,19.60
2015,04,20,13,01,19.70
2015,04,20,13,02,19.70
2015,04,20,13,03,19.80
2015,04,20,13,04,19.80
2015,04,20,13,05,19.80
2015,04,20,13,06,19.90
2015,04,20,13,07,19.90
2015,04,20,13,08,20.00
2015,04,20,13,09,19.90
2015,04,20,13,10,19.90
2015,04,20,13,11,19.90
2015,04,20,13,12,19.90
2015,04,20,13,13,19.90
2015,04,20,13,14,19.90
2015,04,20,13,15,19.90
2015,04,20,13,16,19.80
2015,04,20,13,17,19.80
2015,04,20,13,18,19.80
2015,04,20,13,19,19.80
2015,04,20,13,20,19.90
2015,04,20,13,21,19.90
2015,04,20,13,22,19.90
2015,04,20,13,23,19.90
2015,04,20,13,24,19.90
2015,04,20,13,25,19.90
2015,04,20,13,26,19.90
2015,04,20,13,27,19.90
2015,04,20,13,28,19.90
2015,04,20,13,29,19.90
2015,04,20,13,30,19.90
2015,04,20,13,31,19.90
2015,04,20,13,32,19.90
2015,04,20,13,33,19.90
2015,04,20,13,34,19.90
2015,04,20,13,35,19.90
2015,04,20,13,36,19.90
2015,04,20,13,37,19.90
2015,04,20,13,38,19.90
2015,04,20,13,39,19.90
2015,04,20,13,40,19.90
2015,04,20,13,41,19.90
2015,04,20,13,42,19.90
2015,04,20,13,43,19.80
2015,04,20,13,44,19.80
2015,04,20,13,45,19.90
2015,04,20,13,46,19.90
2015,04,20,13,47,19.90
2015,04,20,13,48,20.00
2015,04,20,13,49,20.00
2015,04,20,13,50,20.00
2015,04,20,13,51,20.10
2015,04,20,13,52,20.10
2015,04,20,13,53,20.20
2015,04,20,13,54,20.20
2015,04,20,13,55,20.30
2015,04,20,13,56,20.40
2015,04,20,13,57,20.40
2015,04,20,13,58,20.40
2015,04,20,13,59,20.40
2015,04,20,14,00,20.40
2015,04,20,14,01,20.40
2015,04,20,14,02,20.50
2015,04,20,14,03,20.50
2015,04,20,14,04,20.50
2015,04,20,14,05,20.50
2015,04,20,14,06,20.60
2015,04,20,14,07,20.60
2015,04,20,14,08,20.60
2015,04,20,14,09,20.70
2015,04,20,14,10,20.70
2015,04,20,14,11,20.70
2015,04,20,14,12,20.70
2015,04,20,14,13,20.80
2015,04,20,14,14,20.80
2015,04,20,14,15,20.80
2015,04,20,14,16,20.80
2015,04,20,14,17,20.80
2015,04,20,14,18,20.80
2015,04,20,14,19,20.80
2015,04,20,14,20,20.80
2015,04,20,14,21,20.80
2015,04,20,14,22,20.80
2015,04,20,14,23,20.80
2015,04,20,14,24,20.70
2015,04,20,14,25,20.70
2015,04,20,14,26,20.70
2015,04,20,14,27,20.70
2015,04,20,14,28,20.70
2015,04,20,14,29,20.70
2015,04,20,14,30,20.70
2015,04,20,14,31,20.60
2015,04,20,14,32,20.60
2015,04,20,14,33,20.70
2015,04,20,14,34,20.70
2015,04,20,14,35,20.80
2015,04,20,14,36,20.80
2015,04,20,14,37,20.80
2015,04,20,14,38,20.80
2015,04,20,14,39,20.90
2015,04,20,14,40,20.90
2015,04,20,14,41,20.90
2015,04,20,14,42,20.90
2015,04,20,14,43,20.90
2015,04,20,14,44,20.90
2015,04,20,14,45,20.90
2015,04,20,14,46,21.00
2015,04,20,14,47,21.00
2015,04,20,14,48,21.00
2015,04,20,14,49,21.10
2015,04,20,14,50,21.10
2015,04,20,14,51,21.20
2015,04,20,14,52,21.20
2015,04,20,14,53,21.20
2015,04,20,14,54,21.20
2015,04,20,14,55,21.30
2015,04,20,14,56,21.40
2015,04,20,14,57,21.40
2015,04,20,14,58,21.50
2015,04,20,14,59,21.50
2015,04,20,15,00,21.60
2015,04,20,15,01,21.70
2015,04,20,15,02,21.70
2015,04,20,15,03,21.70
2015,04,20,15,04,21.80
2015,04,20,15,05,21.80
2015,04,20,15,06,21.80
2015,04,20,15,07,21.70
2015,04,20,15,08,21.70
2015,04,20,15,09,21.70
2015,04,20,15,10,21.70
2015,04,20,15,11,21.60
2015,04,20,15,12,21.50
2015,04,20,15,13,21.50
2015,04,20,15,14,21.40
2015,04,20,15,15,21.30
2015,04,20,15,16,21.30
2015,04,20,15,17,21.30
2015,04,20,15,18,21.40
2015,04,20,15,19,21.40
2015,04,20,15,20,21.40
2015,04,20,15,21,21.40
2015,04,20,15,22,21.50
2015,04,20,15,23,21.50
2015,04,20,15,24,21.60
2015,04,20,15,25,21.60
2015,04,20,15,26,21.60
2015,04,20,15,27,21.60
2015,04,20,15,28,21.70
2015,04,20,15,29,21.70
2015,04,20,15,30,21.70
2015,04,20,15,31,21.80
2015,04,20,15,32,21.80
2015,04,20,15,33,21.80
2015,04,20,15,34,21.90
2015,04,20,15,35,21.90
2015,04,20,15,36,22.00
2015,04,20,15,37,22.00
2015,04,20,15,38,22.10
2015,04,20,15,39,22.10
2015,04,20,15,40,22.20
2015,04,20,15,41,22.20
2015,04,20,15,42,22.20
2015,04,20,15,43,22.30
2015,04,20,15,44,22.30
2015,04,20,15,45,22.40
2015,04,20,15,46,22.40
2015,04,20,15,47,22.50
2015,04,20,15,48,22.50
2015,04,20,15,49,22.50
2015,04,20,15,50,22.60
2015,04,20,15,51,22.60
2015,04,20,15,52,22.60
2015,04,20,15,53,22.60
2015,04,20,15,54,22.60
2015,04,20,15,55,22.60
2015,04,20,15,56,22.60
2015,04,20,15,57,22.60
2015,04,20,15,58,22.60
2015,04,20,15,59,22.50
2015,04,20,16,00,22.40
2015,04,20,16,01,22.40
2015,04,20,16,02,22.40
2015,04,20,16,03,22.40
2015,04,20,16,04,22.40
2015,04,20,16,05,22.40
2015,04,20,16,06,22.40
2015,04,20,16,07,22.40
2015,04,20,16,08,22.50
2015,04,20,16,09,22.50
2015,04,20,16,10,22.60
2015,04,20,16,11,22.60
2015,04,20,16,12,22.60
2015,04,20,16,13,22.70
2015,04,20,16,14,22.70
2015,04,20,16,15,22.70
2015,04,20,16,16,22.70
2015,04,20,16,17,22.70
2015,04,20,16,18,22.70
2015,04,20,16,19,22.70
2015,04,20,16,20,22.70
2015,04,20,16,21,22.70
2015,04,20,16,22,22.70
2015,04,20,16,23,22.60
2015,04,20,16,24,22.60
2015,04,20,16,25,22.60
2015,04,20,16,26,22.60
2015,04,20,16,27,22.60
2015,04,20,16,28,22.50
2015,04,20,16,29,22.50
2015,04,20,16,30,22.40
2015,04,20,16,31,22.30
2015,04,20,16,32,22.30
2015,04,20,16,33,22.30
2015,04,20,16,34,22.20
2015,04,20,16,35,22.20
2015,04,20,16,36,22.10
2015,04,20,16,37,22.10
2015,04,20,16,38,22.10
2015,04,20,16,39,22.10
2015,04,20,16,40,22.10
2015,04,20,16,41,22.10
2015,04,20,16,42,22.10
2015,04,20,16,43,22.10
2015,04,20,16,44,22.10
2015,04,20,16,45,22.10
2015,04,20,16,46,22.10
2015,04,20,16,47,22.10
2015,04,20,16,48,22.10
2015,04,20,16,49,22.10
2015,04,20,16,50,22.10
2015,04,20,16,51,22.10
2015,04,20,16,52,22.10
2015,04,20,16,53,22.00
2015,04,20,16,54,22.00
2015,04,20,16,55,22.00
2015,04,20,16,56,22.00
2015,04,20,16,57,22.00
2015,04,20,16,58,22.00
2015,04,20,16,59,21.90
2015,04,20,17,00,21.90
2015,04,20,17,01,21.90
2015,04,20,17,02,21.90
2015,04,20,17,03,21.90
2015,04,20,17,04,21.90
2015,04,20,17,05,21.90
2015,04,20,17,06,21.90
2015,04,20,17,07,22.00
2015,04,20,17,08,22.00
2015,04,20,17,09,22.00
2015,04,20,17,10,22.00
2015,04,20,17,11,22.00
2015,04,20,17,12,22.00
2015,04,20,17,13,22.00
2015,04,20,17,14,22.00
2015,04,20,17,15,21.90
2015,04,20,17,16,21.90
2015,04,20,17,17,21.80
2015,04,20,17,18,21.80
2015,04,20,17,19,21.80
2015,04,20,17,20,21.80
2015,04,20,17,21,21.70
2015,04,20,17,22,21.70
2015,04,20,17,23,21.70
2015,04,20,17,24,21.70
2015,04,20,17,25,21.70
2015,04,20,17,26,21.70
2015,04,20,17,27,21.70
2015,04,20,17,28,21.70
2015,04,20,17,29,21.60
2015,04,20,17,30,21.60
2015,04,20,17,31,21.60
2015,04,20,17,32,21.60
2015,04,20,17,33,21.50
2015,04,20,17,34,21.50
2015,04,20,17,35,21.40
2015,04,20,17,36,21.40
2015,04,20,17,37,21.40
2015,04,20,17,38,21.40
2015,04,20,17,39,21.40
2015,04,20,17,40,21.40
2015,04,20,17,41,21.40
2015,04,20,17,42,21.40